Oxnard, CA

8:41 AM PDT on June 28, 2017 (GMT -0700)
Oxnard

Weather History for KOXR - August, 2013

Change the Weather History Date:

Saturday, August 24, 2013

  Actual Average Record
Temperature  
Mean Temperature 60 °F -  
Max Temperature 69 °F 76 °F 86 °F (1968)
Min Temperature 54 °F 57 °F 50 °F (1972)
Degree Days  
Heating Degree Days 5    
Growing Degree Days 10 (Base 50)    
Moisture  
Dew Point 57 °F    
Average Humidity 89    
Maximum Humidity 100    
Minimum Humidity 70    
Precipitation  
Precipitation 0.00 in - - ()
Sea Level Pressure  
Sea Level Pressure 29.83 in    
Wind  
Wind Speed 3 mph (SW)    
Max Wind Speed 14 mph    
Max Gust Speed -    
Visibility 7 miles    
Events      
Averages and records for this station are not official NWS values.
T = Trace of Precipitation, MM = Missing Value Source: NWS Daily Summary

Daily Weather History Graph

Daily Weather History Graph

Search for Another Location

Airport or City:

Trip Planner

Search our weather history database for the weather conditions in past years. The results will help you decide how hot, cold, wet, or windy it might be!

Date:

Astronomy

Aug. 24, 2013 Rise Set
Actual Time 6:24 AM PDT 7:32 PM PDT
Civil Twilight 5:58 AM PDT 7:58 PM PDT
Nautical Twilight 5:27 AM PDT 8:29 PM PDT
Astronomical Twilight 4:55 AM PDT 9:01 PM PDT
Moon 9:44 PM PDT (8/24) 10:16 AM PDT (8/24)
Length of Visible Light 13h 59m
Length of Day
13h 07m
Waning Gibbous, 83% of the Moon is Illuminated
Aug 24
Waning Gibbous
Aug 28
Last Quarter
Sep 5
New
Sep 12
First Quarter
Sep 19
Full

Hourly Weather History & Observations

Time (PDT) Temp. Dew Point Humidity Pressure Visibility Wind Dir Wind Speed Gust Speed Precip Events Conditions
12:51 AM 57.9 °F 57.9 °F 100% 29.81 in 6.0 mi Calm Calm - N/A   Clear
1:28 AM 59.0 °F 57.2 °F 94% 29.81 in 7.0 mi Calm Calm - N/A   Scattered Clouds
1:36 AM 57.2 °F 55.4 °F 94% 29.82 in 7.0 mi Calm Calm - N/A   Mostly Cloudy
1:51 AM 57.9 °F 57.0 °F 97% 29.81 in 7.0 mi Calm Calm - N/A   Scattered Clouds
2:51 AM 55.9 °F 55.0 °F 97% 29.81 in 7.0 mi East 3.5 mph - N/A   Clear
3:51 AM 55.9 °F 55.0 °F 97% 29.81 in 7.0 mi Calm Calm - N/A   Clear
4:51 AM 55.0 °F 53.1 °F 93% 29.80 in 9.0 mi Calm Calm - N/A   Clear
5:51 AM 54.0 °F 52.0 °F 93% 29.81 in 8.0 mi Calm Calm - N/A   Clear
6:29 AM 55.4 °F 53.6 °F 94% 29.82 in 8.0 mi SSE 3.5 mph - N/A   Partly Cloudy
6:46 AM 55.4 °F 53.6 °F 94% 29.82 in 8.0 mi SSE 3.5 mph - N/A   Mostly Cloudy
6:51 AM 55.0 °F 53.1 °F 93% 29.82 in 7.0 mi Calm Calm - N/A   Mostly Cloudy
7:25 AM 57.2 °F 55.4 °F 94% 29.83 in 7.0 mi Calm Calm - N/A   Scattered Clouds
7:51 AM 59.0 °F 55.9 °F 90% 29.83 in 5.0 mi Calm Calm - N/A   Mostly Cloudy
8:51 AM 60.1 °F 57.9 °F 93% 29.84 in 6.0 mi West 3.5 mph - N/A   Overcast
9:48 AM 62.6 °F 57.2 °F 82% 29.85 in 7.0 mi Calm Calm - N/A   Scattered Clouds
9:51 AM 63.0 °F 57.9 °F 84% 29.85 in 7.0 mi Variable 3.5 mph - N/A   Partly Cloudy
10:51 AM 66.0 °F 57.9 °F 75% 29.85 in 8.0 mi WNW 8.1 mph - N/A   Clear
11:51 AM 66.0 °F 59.0 °F 78% 29.85 in 9.0 mi West 10.4 mph - N/A   Clear
12:16 PM 64.4 °F 59.0 °F 83% 29.85 in 9.0 mi West 12.7 mph - N/A   Partly Cloudy
12:51 PM 66.0 °F 59.0 °F 78% 29.84 in 9.0 mi West 12.7 mph - N/A   Partly Cloudy
1:51 PM 64.9 °F 57.9 °F 78% 29.82 in 10.0 mi West 9.2 mph - N/A   Clear
2:51 PM 66.0 °F 57.9 °F 75% 29.81 in 10.0 mi West 10.4 mph - N/A   Clear
3:51 PM 66.9 °F 57.0 °F 70% 29.78 in 10.0 mi West 11.5 mph - N/A   Clear
4:51 PM 66.0 °F 57.9 °F 75% 29.79 in 10.0 mi West 13.8 mph - N/A   Clear
5:51 PM 66.0 °F 59.0 °F 78% 29.79 in 10.0 mi West 8.1 mph - N/A   Clear
6:51 PM 64.0 °F 59.0 °F 84% 29.79 in 9.0 mi Calm Calm - N/A   Clear
7:51 PM 62.1 °F 59.0 °F 90% 29.81 in 9.0 mi West 4.6 mph - N/A   Clear
8:51 PM 60.1 °F 59.0 °F 96% 29.83 in 8.0 mi West 4.6 mph - N/A   Clear
9:51 PM 61.0 °F 59.0 °F 93% 29.85 in 9.0 mi Calm Calm - N/A   Clear
10:46 PM 60.8 °F 59.0 °F 94% 29.86 in 7.0 mi SSE 4.6 mph - N/A   Scattered Clouds
10:51 PM 60.1 °F 59.0 °F 96% 29.86 in 6.0 mi SSE 5.8 mph - N/A   Mostly Cloudy
10:59 PM 60.8 °F 59.0 °F 94% 29.86 in 4.0 mi SE 5.8 mph - N/A   Mostly Cloudy
11:22 PM 59.0 °F 59.0 °F 100% 29.87 in 3.0 mi SSE 4.6 mph - N/A   Overcast
11:30 PM 59.0 °F 59.0 °F 100% 29.87 in 2.0 mi SSE 5.8 mph - N/A   Overcast
11:51 PM 57.9 °F 57.9 °F 100% 29.88 in 3.0 mi South 5.8 mph - N/A   Overcast